Provo, UT

9:06 AM MST on February 20, 2018 (GMT -0700)
Provo Municipal

Weather History for KPVU - December, 2012

Change the Weather History Date:

Monday, December 24, 2012

  Actual Average Record
Temperature  
Mean Temperature 32 °F -  
Max Temperature 39 °F 33 °F 51 °F (2003)
Min Temperature 24 °F 19 °F -11 °F (1990)
Degree Days  
Heating Degree Days 32    
Moisture  
Dew Point 28 °F    
Average Humidity 85    
Maximum Humidity 100    
Minimum Humidity 65    
Precipitation  
Precipitation 0.01 in - - ()
Sea Level Pressure  
Sea Level Pressure 29.89 in    
Wind  
Wind Speed 8 mph (SE)    
Max Wind Speed 23 mph    
Max Gust Speed 37 mph    
Visibility 8 miles    
Events Rain , Snow    
Averages and records for this station are not official NWS values.
T = Trace of Precipitation, MM = Missing Value Source: NWS Daily Summary

Daily Weather History Graph

Daily Weather History Graph

Search for Another Location

Airport or City:

Trip Planner

Search our weather history database for the weather conditions in past years. The results will help you decide how hot, cold, wet, or windy it might be!

Date:

Astronomy

Dec. 24, 2012 Rise Set
Actual Time 7:47 AM MST 5:06 PM MST
Civil Twilight 7:16 AM MST 5:36 PM MST
Nautical Twilight 6:42 AM MST 6:11 PM MST
Astronomical Twilight 6:09 AM MST 6:44 PM MST
Moon 2:36 PM MST (12/24) 4:29 AM MST (12/24)
Length of Visible Light 10h 20m
Length of Day
9h 18m
Waxing Gibbous, 89% of the Moon is Illuminated
Dec 24
Waxing Gibbous
Dec 28
Full
Jan 4
Last Quarter
Jan 11
New
Jan 18
First Quarter

Hourly Weather History & Observations

Time (MST) Temp. Windchill Dew Point Humidity Pressure Visibility Wind Dir Wind Speed Gust Speed Precip Events Conditions
12:15 AM 39.2 °F 35.0 °F 28.4 °F 65% 29.89 in 10.0 mi ESE 5.8 mph - N/A   Overcast
12:35 AM 39.2 °F 33.6 °F 30.2 °F 70% 29.88 in 10.0 mi ESE 8.1 mph - N/A   Overcast
12:55 AM 37.4 °F 30.3 °F 30.2 °F 75% 29.88 in 10.0 mi ESE 10.4 mph - N/A   Overcast
1:15 AM 37.4 °F 30.8 °F 30.2 °F 75% 29.88 in 10.0 mi SE 9.2 mph - N/A   Overcast
1:35 AM 37.4 °F 30.3 °F 30.2 °F 75% 29.88 in 10.0 mi South 10.4 mph - N/A   Overcast
1:55 AM 35.6 °F 28.0 °F 32.0 °F 87% 29.87 in 10.0 mi SE 10.4 mph - N/A   Overcast
2:15 AM 35.6 °F 28.0 °F 32.0 °F 87% 29.86 in 10.0 mi ESE 10.4 mph - N/A   Overcast
2:35 AM 35.6 °F 30.7 °F 32.0 °F 87% 29.87 in 10.0 mi SE 5.8 mph - N/A   Overcast
2:55 AM 33.8 °F 27.7 °F 32.0 °F 93% 29.86 in 10.0 mi ESE 6.9 mph - N/A   Overcast
3:15 AM 33.8 °F 25.3 °F 32.0 °F 93% 29.85 in 10.0 mi SE 11.5 mph - N/A   Overcast
3:35 AM 35.6 °F 28.0 °F 33.8 °F 93% 29.84 in 10.0 mi ESE 10.4 mph - N/A   Overcast
3:55 AM 33.8 °F 27.0 °F 32.0 °F 93% 29.83 in 10.0 mi SE 8.1 mph - N/A   Overcast
4:15 AM 35.6 °F 30.7 °F 33.8 °F 93% 29.82 in 10.0 mi South 5.8 mph - N/A   Overcast
4:35 AM 35.6 °F - 33.8 °F 93% 29.81 in 10.0 mi Calm Calm - N/A   Overcast
4:55 AM 33.8 °F - 33.8 °F 100% 29.81 in 10.0 mi Calm Calm - N/A   Mostly Cloudy
5:15 AM 35.6 °F 32.8 °F 32.0 °F 87% 29.79 in 10.0 mi ESE 3.5 mph - N/A   Partly Cloudy
5:35 AM 33.8 °F 27.7 °F 32.0 °F 93% 29.79 in 10.0 mi SE 6.9 mph - N/A   Mostly Cloudy
5:55 AM 33.8 °F 28.6 °F 30.2 °F 87% 29.79 in 10.0 mi SE 5.8 mph - N/A   Overcast
6:35 AM 35.6 °F 29.2 °F 30.2 °F 81% 29.80 in 10.0 mi SE 8.1 mph - 0.01 in   Overcast
6:55 AM 33.8 °F 27.0 °F 32.0 °F 93% 29.80 in 10.0 mi ESE 8.1 mph - 0.01 in   Overcast
7:50 AM 33.8 °F 30.8 °F 32.0 °F 93% 29.79 in 7.0 mi Variable 3.5 mph - N/A   Overcast
8:05 AM 33.8 °F - 32.0 °F 93% 29.79 in 5.0 mi Calm Calm - N/A Rain Light Rain
8:50 AM 33.8 °F - 30.2 °F 87% 29.79 in 1.0 mi Calm Calm - N/A Snow Light Snow
8:51 AM 33.8 °F - 30.2 °F 87% 29.79 in 1.0 mi Calm Calm - N/A Snow Light Snow
9:47 AM 32.0 °F - 32.0 °F 100% 29.80 in 1.0 mi Calm Calm - N/A Snow Light Snow
10:50 AM 33.8 °F - 32.0 °F 93% 29.81 in 0.8 mi Calm Calm - N/A Snow Light Snow
11:55 AM 33.8 °F - 32.0 °F 93% 29.80 in 4.0 mi Calm Calm - N/A   Overcast
12:55 PM 33.8 °F 22.8 °F 30.2 °F 87% 29.81 in 0.5 mi NW 18.4 mph 26.5 mph N/A Snow Blowing Snow
1:47 PM 30.2 °F 17.1 °F 26.6 °F 86% 29.81 in 5.0 mi NW 21.9 mph 36.8 mph N/A   Overcast
2:56 PM 30.2 °F 21.9 °F 26.6 °F 86% 29.85 in 8.0 mi NW 9.2 mph - N/A   Mostly Cloudy
3:49 PM 30.2 °F 18.1 °F 26.6 °F 86% 29.89 in 10.0 mi WNW 18.4 mph - N/A   Mostly Cloudy
5:50 PM 35.6 °F 25.9 °F 24.8 °F 65% 29.98 in 10.0 mi NW 16.1 mph - N/A   Mostly Cloudy
6:50 PM 28.4 °F 18.5 °F 23.0 °F 80% 30.00 in 10.0 mi WNW 11.5 mph - N/A   Mostly Cloudy
7:50 PM 26.6 °F 15.2 °F 21.2 °F 80% 30.03 in 10.0 mi WNW 13.8 mph - N/A   Mostly Cloudy
8:50 PM 26.6 °F 12.0 °F 21.2 °F 80% 30.03 in 8.0 mi WNW 23.0 mph - N/A   Mostly Cloudy
9:15 PM 26.6 °F 12.7 °F 23.0 °F 86% 30.04 in 10.0 mi WNW 20.7 mph 25.3 mph N/A   Clear
9:35 PM 26.6 °F 13.1 °F 23.0 °F 86% 30.04 in 10.0 mi WNW 19.6 mph - N/A   Clear
9:55 PM 26.6 °F 15.2 °F 21.2 °F 80% 30.05 in 10.0 mi NW 13.8 mph - N/A   Clear
10:15 PM 26.6 °F 16.2 °F 21.2 °F 80% 30.06 in 10.0 mi NW 11.5 mph - N/A   Clear
10:35 PM 26.6 °F 14.3 °F 21.2 °F 80% 30.06 in 10.0 mi WNW 16.1 mph - N/A   Clear
10:55 PM 26.6 °F 21.2 °F 19.4 °F 74% 30.07 in 10.0 mi WNW 4.6 mph - N/A   Clear
11:15 PM 26.6 °F 21.2 °F 19.4 °F 74% 30.08 in 10.0 mi North 4.6 mph - N/A   Clear
11:35 PM 26.6 °F 16.8 °F 17.6 °F 69% 30.08 in 10.0 mi NW 10.4 mph - N/A   Clear
11:55 PM 24.8 °F 15.3 °F 17.6 °F 74% 30.08 in 10.0 mi WNW 9.2 mph - N/A   Clear